User: anonymous   Login
Location: Santa Teresa Spring
(37.2333°N, 121.7000°W)
Time: 02:49:36
(UTC-08:00)
Language:

Cosmos 1633 - Orbit

View from above orbital plane
View from above orbital plane
View from above satellite
View from above satellite

Ground track
Ground track

The orbit data is extracted from the following two-line orbital elements,

1 15592U 85020A   16040.11947612  .00004418  00000-0  16940-3 0  9999
2 15592  82.5377  93.5654 0016303 119.2494 241.0376 15.26108319688877
Epoch (UTC): 09 February 2016 02:52:02
Eccentricity: 0.0016303
inclination: 82.5377°
perigee height: 476 km
apogee height: 498 km
right ascension of ascending node: 93.5654°
argument of perigee: 119.2494°
revolutions per day: 15.26108319
mean anomaly at epoch: 241.0376°
orbit number at epoch: 68887

The dashed part of the orbit path shows where the satellite is in the earth's shadow,  

DLR